map of RGL home
Great Circle Mapper logo
RGL - Airport
Location
City:  Rio Gallegos, Santa Cruz, Argentina
ICAO / IATA:SAWG / RGL

Details
Type:Airport (Aerodrome, Airfield)
Use:Public/Civil, Military
Latitude:5136'32"S (-51.608874)
Longitude:6918'45"W (-69.312635)
Datum:WGS 1984
Elevation:61 ft (19 m)
Runways:1
Longest:11647 × 148 ft (3550 × 45 m), paved

Time
Time Zone:UTC-3
Local Time:

Weather
METAR:SAWG 291600Z VRB02KT CAVOK 05/M02 Q1003
TAF:SAWG 291100Z 2912/3012 29010KT CAVOK TX08/2919Z TN00/3010Z
BECMG 2918/2920 02010KT 9999 FEW030 SCT100

Related Locations
Nearby:
Farthest:HTA: 12321 mi / 19829 km
Chita, Chita [Kadala], RU

Find:

   beyond  
but within

Other Information
Maps:
NOTAMs:
Links:
Sources:

  
flag of Argentina
flag of Santa Cruz
  

Sectional Chart

Flight Planning
at skyvector.com

Satellite Image

Google Maps Satellite View

 

Copyright © 2004-2014 Karl L. Swartz. All rights reserved.
The Great Circle Mapper name and logo are trademarks of the Great Circle Mapper.
All other trademarks mentioned herein belong to their respective owners.
Please see credits for attibutions and further copyright information.

  Follow gcmap on Facebook Follow gcmap on Twitter

hCard Microformat

Geo Microformat